�������r�C�����j�^�v���󋵏��
Date,Time,5�C6���@���p�r�C��,����,����(m/s)
2022/02/25,00:00,4.0,�k��,1.7
2022/02/25,00:10,4.1,���k��,2.0
2022/02/25,00:20,4.1,��,1.2
2022/02/25,00:30,4.1,�k��,0.8
2022/02/25,00:40,4.1,-,CALM
2022/02/25,00:50,4.1,��,1.5
2022/02/25,01:00,4.1,���쐼,1.7
2022/02/25,01:10,4.1,���k��,4.3
2022/02/25,01:20,4.1,��,5.3
2022/02/25,01:30,4.0,���쐼,5.5
2022/02/25,01:40,4.1,���쐼,5.7
2022/02/25,01:50,3.9,�쐼,6.0
2022/02/25,02:00,4.0,�쐼,6.9
2022/02/25,02:10,4.0,���쐼,6.6
2022/02/25,02:20,4.2,�쐼,5.3
2022/02/25,02:30,4.1,���쐼,4.2
2022/02/25,02:40,4.0,��쐼,4.8
2022/02/25,02:50,4.0,�쐼,4.6
2022/02/25,03:00,4.1,�쐼,3.9
2022/02/25,03:10,4.3,��쐼,3.6
2022/02/25,03:20,4.1,��쐼,3.5
2022/02/25,03:30,4.2,�쐼,4.2
2022/02/25,03:40,4.1,���쐼,5.0
2022/02/25,03:50,4.3,���쐼,4.0
2022/02/25,04:00,4.0,���쐼,4.3
2022/02/25,04:10,4.3,���쐼,4.9
2022/02/25,04:20,4.1,��,4.9
2022/02/25,04:30,4.3,���쐼,3.0
2022/02/25,04:40,4.2,�쐼,3.8
2022/02/25,04:50,4.2,���쐼,4.4
2022/02/25,05:00,4.1,���쐼,3.7
2022/02/25,05:10,4.1,���쐼,4.4
2022/02/25,05:20,4.1,���쐼,5.4
2022/02/25,05:30,4.3,��,3.6
2022/02/25,05:40,4.2,���쐼,3.7
2022/02/25,05:50,4.0,���쐼,3.4
2022/02/25,06:00,4.2,��,4.4
2022/02/25,06:10,4.1,��,5.0
2022/02/25,06:20,4.1,���쐼,5.9
2022/02/25,06:30,4.2,��,6.6
2022/02/25,06:40,4.5,��,6.5
2022/02/25,06:50,4.3,��,5.7
2022/02/25,07:00,3.8,��,5.9
2022/02/25,07:10,4.3,���쐼,6.2
2022/02/25,07:20,4.1,���쐼,4.3
2022/02/25,07:30,4.1,��,5.1
2022/02/25,07:40,4.1,��,5.7
2022/02/25,07:50,4.2,���쐼,6.0
2022/02/25,08:00,3.9,���쐼,4.5
2022/02/25,08:10,4.1,���쐼,5.6
2022/02/25,08:20,4.1,���쐼,4.7
2022/02/25,08:30,4.1,��,5.0
2022/02/25,08:40,4.1,���쐼,8.0
2022/02/25,08:50,4.1,��,6.0
2022/02/25,09:00,4.2,��,7.5
2022/02/25,09:10,4.1,���k��,6.5
2022/02/25,09:20,3.9,��,5.8
2022/02/25,09:30,4.1,��,7.6
2022/02/25,09:40,4.3,���k��,9.3
2022/02/25,09:50,4.1,��,9.3
2022/02/25,10:00,4.0,���k��,7.4
2022/02/25,10:10,4.1,��,7.2
2022/02/25,10:20,4.0,��,6.2
2022/02/25,10:30,4.2,��,7.7
2022/02/25,10:40,4.3,��,7.2
2022/02/25,10:50,4.2,��,7.4
2022/02/25,11:00,4.0,��,8.6
2022/02/25,11:10,4.2,���k��,10.9
2022/02/25,11:20,4.1,��,9.5
2022/02/25,11:30,4.1,���k��,10.5
2022/02/25,11:40,4.3,��,8.4
2022/02/25,11:50,4.1,��,8.4
2022/02/25,12:00,4.2,���쐼,8.5
2022/02/25,12:10,3.9,��,9.5
2022/02/25,12:20,4.0,��,8.2
2022/02/25,12:30,4.1,��,9.3
2022/02/25,12:40,4.0,��,10.7
2022/02/25,12:50,4.2,��,9.8
2022/02/25,13:00,4.1,��,8.8
2022/02/25,13:10,4.0,��,10.0
2022/02/25,13:20,4.1,��,9.5
2022/02/25,13:30,4.2,��,10.8
2022/02/25,13:40,4.3,��,10.7
2022/02/25,13:50,4.1,��,10.2
2022/02/25,14:00,4.2,��,8.7
2022/02/25,14:10,4.0,��,8.6
2022/02/25,14:20,4.1,��,8.7
2022/02/25,14:30,4.2,��,9.2
2022/02/25,14:40,4.1,��,9.1
2022/02/25,14:50,4.0,��,10.5
2022/02/25,15:00,4.1,��,9.3
2022/02/25,15:10,4.0,��,9.2
2022/02/25,15:20,4.1,��,8.5
2022/02/25,15:30,4.2,��,11.8
2022/02/25,15:40,4.1,��,10.2
2022/02/25,15:50,4.1,��,10.2
2022/02/25,16:00,4.2,��,11.0
2022/02/25,16:10,4.0,��,10.5
2022/02/25,16:20,4.2,��,10.0
2022/02/25,16:30,4.3,��,7.1
2022/02/25,16:40,4.1,��,6.1
2022/02/25,16:50,4.1,��,8.0
2022/02/25,17:00,4.1,��,6.9
2022/02/25,17:10,4.1,��,5.4
2022/02/25,17:20,4.0,��,5.4
2022/02/25,17:30,4.1,��,5.4
2022/02/25,17:40,4.1,��,6.5
2022/02/25,17:50,4.3,���k��,6.7
2022/02/25,18:00,4.2,���k��,5.4
2022/02/25,18:10,4.3,���k��,6.0
2022/02/25,18:20,4.2,���k��,4.0
2022/02/25,18:30,4.2,���k��,4.3
2022/02/25,18:40,4.1,���k��,5.5
2022/02/25,18:50,4.1,���k��,4.8
2022/02/25,19:00,4.2,���k��,5.1
2022/02/25,19:10,4.1,���k��,5.3
2022/02/25,19:20,4.2,���k��,4.8
2022/02/25,19:30,4.3,��,4.6
2022/02/25,19:40,4.2,���k��,5.1
2022/02/25,19:50,4.2,���k��,4.0
2022/02/25,20:00,4.0,��,3.9
2022/02/25,20:10,4.1,��,3.1
2022/02/25,20:20,4.0,���쐼,2.5
2022/02/25,20:30,4.1,��,2.8
2022/02/25,20:40,4.1,��,2.8
2022/02/25,20:50,4.1,��,3.6
2022/02/25,21:00,4.2,��,2.3
2022/02/25,21:10,4.2,���k��,1.5
2022/02/25,21:20,4.0,�k��,2.6
2022/02/25,21:30,4.1,���k��,3.7
2022/02/25,21:40,4.0,���k��,5.8
2022/02/25,21:50,4.0,�k��,5.8
2022/02/25,22:00,4.2,�k��,5.6
2022/02/25,22:10,4.1,�k��,6.5
2022/02/25,22:20,4.1,�k��,6.9
2022/02/25,22:30,4.2,�k��,5.8
2022/02/25,22:40,4.1,�k��,5.6
2022/02/25,22:50,3.9,�k��,3.9
2022/02/25,23:00,4.1,�k��,4.5
2022/02/25,23:10,4.0,�k,3.4
2022/02/25,23:20,4.2,�k�k��,2.3
2022/02/25,23:30,4.2,�쐼,1.7
2022/02/25,23:40,4.0,�k��,1.1
2022/02/25,23:50,4.1,�k,1.5
